Location: New Mesquite
(33.1168°N, 96.4336°W)
Time: 04:01:11
(UTC+00:00)

Okean 1 - Pass Details

Date: 07 July 2022
Orbit: 532 x 553 km, 82.5° (Epoch: 13 August)

Event Time Altitude Azimuth Distance (km) Brightness Sun altitude
Rises 10:08:22 0° 334° (NNW) 2,681 7.0 -13.9°
Reaches altitude 10° 10:11:02 10° 315° (NW) 1,785 5.9 -13.5°
Maximum altitude 10:13:43 18° 271° (W) 1,345 4.9 -13.0°
Enters shadow 10:14:18 18° 260° (W) 1,368 4.8 -12.9°
